www.pogodaiklimat.ru
ПОГОДА в Айдыне
Время
(UTC), дата
07 31.05
08 31.05
09 31.05
10 31.05
11 31.05
12 31.05
13 31.05
14 31.05
15 31.05
18 31.05
21 31.05
00 1.06
03 1.06
06 1.06
07 1.06
08 1.06
09 1.06
10 1.06
11 1.06
12 1.06
13 1.06
14 1.06
15 1.06
18 1.06
21 1.06
00 2.06
03 2.06
06 2.06
07 2.06
08 2.06
09 2.06
10 2.06
11 2.06
12 2.06
13 2.06
14 2.06
15 2.06
16 2.06
18 2.06
21 2.06
00 3.06
03 3.06
06 3.06
07 3.06
08 3.06
09 3.06
11 3.06
10 3.06
12 3.06
13 3.06
14 3.06
15 3.06
18 3.06
21 3.06
00 4.06
02 4.06
01 4.06
03 4.06
04 4.06
05 4.06
06 4.06
08 4.06
07 4.06
09 4.06
10 4.06
11 4.06
12 4.06
14 4.06
13 4.06
15 4.06
16 4.06
17 4.06
18 4.06
20 4.06
19 4.06
21 4.06
22 4.06
23 4.06
00 5.06
02 5.06
01 5.06
03 5.06
04 5.06
05 5.06
06 5.06
08 5.06
07 5.06
09 5.06
10 5.06
11 5.06
12 5.06
14 5.06
13 5.06
15 5.06
16 5.06
17 5.06
18 5.06
20 5.06
19 5.06
21 5.06
22 5.06
23 5.06
00 6.06
02 6.06
01 6.06
03 6.06
04 6.06
05 6.06
06 6.06
08 6.06
07 6.06
09 6.06
10 6.06
11 6.06
12 6.06
14 6.06
13 6.06
15 6.06
16 6.06
17 6.06
18 6.06
20 6.06
19 6.06
21 6.06
22 6.06
23 6.06
00 7.06
02 7.06
01 7.06
03 7.06
04 7.06
05 7.06
06 7.06
07 7.06
Ветер
(напр.,м/с)
Видим. Явления Облачность Т
(С)
Тd
(С)
f
(%)
Тe
(С)
Тes
(С)
Комфортность P
(гПа)
Po
(гПа)
Тmin
(С)
Tmax
(С)
R
(мм)
R24
(мм)
S
(см)
В 1 20 км 8/4 1000 м
[Cu med, cong Ac cuf]
+19.5 +11.6 60 +22 +26 комфорт 1015.8 1009.2
СВ 1 20 км 8/4 1000 м
[Cu med, cong Ac cuf]
+22.6 +10.7 47 +25 +31 комфорт 1015.4 1008.8
В 1
{4}
20 км 6/4 1200 м
[Cu med, cong Ac und]
+23.9 +11.5 46 +25 +37 комфорт 1015.2 1008.6
ЮЗ 1 20 км 6/4 1000 м
[Cu med, cong Ac und]
+24.4 +12.0 46 +26 +37 жарко 1014.8 1008.2
ЮЗ 1 20 км 8/4 1000 м
[Cu med, cong Ac cuf]
+23.9 +11.9 47 +26 +34 жарко 1014.3 1007.7
штиль 0
{6}
20 км 6/4 1200 м
[Cu med, cong Ac und]
+23.9 +9.0 39 +25 +35 комфорт 1013.6 1007.0
З 1 20 км 8/4 1000 м
[Cu med, cong Ac und]
+24.8 +10.2 40 +26 +31 жарко 1013.0 1006.4
З 1 20 км 6/4 1000 м
[Cu med, cong Ac und]
+24.8 +10.2 40 +26 +31 жарко 1012.6 1006.0
З 1
{4}
20 км 6/4 1200 м
[Cu med, cong Ac und]
+24.3 +10.8 43 +26 +28 жарко 1012.4 1005.8
ЮЗ 1
{8}
20 км 6/4 1200 м
[Cu med, cong Ac und]
+20.4 +12.2 59 +24 +24 комфорт 1013.4 1006.8 +25.8
СЗ 1
{4}
20 км 6/4 1200 м
[Cu med, cong Ac und]
+19.5 +13.7 69 +23 +23 комфорт 1013.5 1007.0
штиль 0
{4}
20 км 4/4 1200 м
[Cu med, cong]
+16.1 +13.7 86 +16 +16 1012.5 1005.9
В 1
{2}
20 км 6/4 1200 м
[Cu med, cong Ac und]
+16.1 +12.1 77 +17 +17 1012.0 1005.4
В 1
{4}
20 км 6/4 1200 м
[Cu med, cong Ac und]
+19.6 +12.4 63 +22 +26 комфорт 1011.5 1004.9 +15.2
СВ 1 20 км 8/4 1000 м
[Cu med, cong Ac und]
+20.7 +11.9 57 +24 +29 комфорт 1011.0 1004.4
штиль 0 20 км 9/5 1000 м
[Cu med, cong Ac As]
+20.6 +10.7 53 +22 +27 комфорт 1010.8 1004.2
штиль 0
{3}
10 км гроза, ливневой дождь 9/5 900 м
[Cb cap Ac As]
+17.9 +15.1 84 +18 +24 1010.1 1003.5
ЮЗ 1 10 км слаб. ливневой дождь, в посл. час гроза 9/4 1000 м
[Cu med, cong Ac As]
+18.9 +15.2 79 +22 +28 комфорт 1010.6 1004.0
З 1 10 км гроза, ливневой дождь 9/5 600 м
[Cb cap Ac As]
+18.2 +14.5 79 +20 +26 1010.3 1003.7
штиль 0
{3}
10 км слаб. ливневой дождь, в посл. час гроза 9/5 1140 м
[Cu med, cong Ac As]
+17.5 +14.2 81 +17 +23 1011.1 1004.5 0.7
штиль 0 20 км в посл. час ливневой дождь 9/5 1000 м
[Cu med, cong Ac As]
+18.9 +14.2 74 +20 +24 1010.6 1004.0
штиль 0 20 км 9/5 1000 м
[Cu med, cong Ac As]
+19.8 +13.5 67 +21 +24 комфорт 1010.2 1003.6
Ю 1
{3}
20 км {ливн. осадки} 9/5 1200 м
[Cu med, cong Ac As]
+19.7 +14.3 71 +23 +24 комфорт 1010.3 1003.7
штиль 0
{3}
20 км {ливн. осадки} 9/5 1200 м
[Cu med, cong Ac As]
+17.7 +12.8 73 +18 +18 1009.8 1003.2 +20.8 1
штиль 0
{1}
20 км 6/4 1200 м
[Cu med, cong Ac trans]
+16.1 +13.7 86 +16 +16 1010.0 1003.4
штиль 0
{1}
20 км 3/3 1200 м
[Cu hum]
+14.6 +12.1 85 +14 +14 1008.9 1002.2
штиль 0
{1}
20 км ясно +12.6 +11.7 94 +12 +12 1008.0 1001.4
штиль 0
{2}
20 км ясно +19.1 +12.6 66 +20 +30 1008.6 1002.0 +12.6 1.0
ЮВ 1 20 км ясно +19.4 +12.7 65 +22 +37 комфорт 1008.3 1001.7
З 1 20 км 3/3 1000 м
[Cu med, cong]
+22.3 +11.7 51 +25 +39 комфорт 1007.8 1001.2
Ю 1
{2}
20 км 3/3 1200 м
[Cu med, cong]
+23.2 +12.2 50 +26 +43 жарко 1007.3 1000.7
Ю 1 20 км 4/4 1000 м
[Cu med, cong]
+23.7 +12.3 49 +26 +41 жарко 1006.8 1000.2
ЮЗ 1 20 км 6/4 1000 м
[Cu med, cong Ac trans]
+25.8 +13.9 48 +28 +39 жарко 1006.3 999.8
ЮЗ 2
{5}
20 км 6/4 1200 м
[Cu med, cong Ac trans]
+25.8 +11.1 40 +27 +36 жарко 1006.2 999.7
ЮЗ 1 20 км 6/4 1000 м
[Cu med, cong Ac und]
+26.3 +12.3 42 +28 +35 жарко 1006.0 999.5
ЮЗ 1 20 км 6/4 1000 м
[Cu med, cong Ac und]
+26.2 +11.8 41 +28 +32 жарко 1006.0 999.5
ЮЗ 2
{6}
20 км 5/5 1140 м
[Cu med, cong]
+25.1 +12.3 45 +27 +29 жарко 1006.1 999.5
ЮЗ 2 20 км 4/4 1000 м
[Cu med, cong]
+22.8 +11.2 48 +25 +26 комфорт 1006.4 999.8
ЮЗ 1
{6}
20 км ясно +19.7 +13.2 66 +23 +23 комфорт 1007.5 1000.9 +27.0
З 1
{3}
20 км ясно +17.2 +14.4 84 +19 +19 1008.7 1002.1
штиль 0
{3}
20 км 3/3 1200 м
[Cu med, cong]
+15.0 +10.6 75 +15 +15 1008.5 1002.0
штиль 0
{1}
20 км 4/0
[Ac trans]
+14.2 +10.6 79 +14 +14 1008.6 1002.0
В 1
{3}
20 км ясно +19.2 +12.7 66 +22 +31 комфорт 1009.6 1003.0 +13.8
В 1 20 км 4/4 1000 м
[Cu med, cong]
+20.9 +12.4 58 +25 +34 комфорт 1009.5 1002.9
ЮЗ 1 20 км 4/4 1000 м
[Cu med, cong]
+22.1 +11.2 50 +24 +36 комфорт 1009.5 1002.9
З 1
{2}
20 км 6/4 1200 м
[Cu med, cong Ac und]
+24.2 +10.8 43 +25 +37 комфорт 1009.1 1002.6
ЮЗ 1 20 км 6/4 1000 м
[Cu med, cong Ac trans]
+26.5 +10.1 36 +27 +39 жарко 1008.2 1001.7
ЮЗ 1 20 км 6/4 1000 м
[Cu med, cong Ac und]
+25.3 +8.2 34 +26 +38 жарко 1008.9 1002.4
ЮЗ 1
{5}
20 км 6/4 1200 м
[Cu med, cong Ac und]
+27.8 +11.2 36 +29 +39 жарко 1007.8 1001.3
ЮЗ 1 20 км 6/4 1000 м
[Cu med, cong Ac und]
+28.4 +10.0 32 +29 +36 жарко 1007.8 1001.3
ЮЗ 2 20 км 5/3 1000 м
[Cu med, cong Ac trans]
+27.1 +11.5 38 +28 +34 жарко 1007.9 1001.4
ЮЗ 2
{6}
20 км 6/3 1200 м
[Cu med, cong Ac und]
+24.2 +10.8 43 +25 +28 комфорт 1008.3 1001.7
ЮЗ 1
{6}
20 км {гроза} 8/5 1200 м
[Cu med, cong Ac und]
+19.7 +14.8 73 +23 +23 комфорт 1010.0 1003.4 +28.8 0.6
штиль 0
{1}
20 км 6/4 1200 м
[Cu med, cong Ac und]
+18.3 +12.8 70 +19 +19 1010.8 1004.3
штиль 0
{1}
20 км 6/4 1200 м
[Cu med, cong Ac und]
+15.1 +13.1 88 +15 +15 1010.9 1004.4
штиль 0 20 км 6/4 1000 м
[Cu med, cong Ac und]
+14.8 +12.6 87 +14 +14 1011.4 1004.8
штиль 0 20 км 6/4 1000 м
[Cu med, cong Ac und]
+14.9 +13.2 90 +15 +15 1010.9 1004.4
штиль 0
{2}
20 км 3/3 1200 м
[Cu med, cong]
+14.8 +11.5 81 +15 +15 1011.7 1005.1
В 1 20 км ясно +14.8 +11.5 81 +16 +17 1012.0 1005.4
В 1 20 км ясно +16.8 +12.7 77 +18 +22 1012.3 1005.7
В 2
{4}
20 км ясно +19.2 +12.7 66 +21 +29 комфорт 1012.7 1006.1 +14.6 0.6
В 1 20 км ясно +23.7 +11.3 46 +25 +44 комфорт 1012.7 1006.2
В 2 20 км ясно +21.9 +12.8 56 +24 +37 комфорт 1012.7 1006.1
СВ 1
{4}
20 км 4/4 1200 м
[Cu med, cong]
+25.1 +8.8 36 +26 +40 жарко 1012.9 1006.4
Ю 1 20 км 3/3 1000 м
[Cu med, cong]
+26.5 +10.9 38 +27 +44 жарко 1012.9 1006.4
ЮЗ 1 20 км 3/3 1000 м
[Cu med, cong]
+27.9 +10.0 33 +28 +45 жарко 1012.8 1006.3
ЮЗ 2
{4}
20 км 4/4 1200 м
[Cu med, cong]
+28.9 +10.4 32 +29 +40 жарко 1012.8 1006.3
ЮЗ 2 20 км 3/3 1000 м
[Cu hum]
+27.9 +10.0 33 +28 +35 жарко 1013.0 1006.4
ЮЗ 2 20 км 4/4 1000 м
[Cu med, cong]
+28.8 +9.4 30 +29 +37 жарко 1012.8 1006.3
ЮЗ 1
{5}
20 км 3/3 1200 м
[Cu hum]
+27.0 +9.2 33 +27 +31 жарко 1013.3 1006.7
ЮЗ 2 20 км 3/3 1000 м
[Cu hum]
+25.3 +8.6 35 +26 +27 жарко 1013.5 1006.9
ЮЗ 1 20 км 3/3 1000 м
[Cu hum]
+23.7 +9.9 42 +25 +25 комфорт 1014.0 1007.4
З 1
{5}
20 км ясно +22.1 +11.5 51 +24 +24 комфорт 1014.5 1007.9 +29.7
штиль 0 20 км ясно +20.3 +11.0 55 +22 +22 комфорт 1015.8 1009.2
З 1 20 км ясно +21.4 +11.1 52 +23 +23 комфорт 1015.2 1008.6
штиль 0
{3}
20 км ясно +19.8 +9.9 53 +21 +21 комфорт 1015.7 1009.2
штиль 0 20 км ясно +18.3 +11.2 63 +19 +19 1016.0 1009.5
штиль 0 20 км ясно +16.5 +10.6 68 +16 +16 1016.1 1009.5
штиль 0
{3}
20 км ясно +15.9 +10.9 72 +16 +16 1015.9 1009.4
штиль 0 20 км ясно +15.4 +10.4 72 +15 +15 1016.0 1009.4
штиль 0 20 км ясно +15.3 +9.5 68 +15 +15 1016.0 1009.4
В 1
{2}
20 км ясно +15.7 +10.1 69 +17 +17 1016.0 1009.4
В 1 20 км ясно +15.7 +10.3 70 +17 +18 1016.3 1009.7
В 1 20 км ясно +18.5 +11.4 63 +21 +25 комфорт 1016.4 1009.8
В 1
{3}
20 км ясно +21.3 +10.7 51 +23 +32 комфорт 1016.7 1010.1 +15.2
СВ 1 20 км 4/0
[Ci fib]
+26.6 +9.8 35 +27 +46 жарко 1016.0 1009.5
В 1 20 км ясно +24.1 +12.1 47 +26 +40 жарко 1016.4 1009.9
В 1
{3}
20 км 4/0
[Ci fib]
+28.2 +10.3 33 +29 +51 опасность
солнечного
удара
1015.8 1009.3
З 1 20 км 4/0
[Ci fib]
+29.1 +8.1 27 +29 +53 опасность
солнечного
удара
1015.0 1008.5
ЮЗ 1 20 км 4/0
[Ci fib]
+30.0 +9.4 28 +30 +53 опасность
солнечного
удара
1014.4 1007.9
З 1
{4}
20 км 4/0
[Ci fib]
+30.9 +11.7 31 +31 +51 опасность
солнечного
удара
1013.9 1007.4
З 2 20 км 3/0
[Ci fib]
+31.0 +9.7 27 +31 +39 жарко 1013.1 1006.6
З 2 20 км 3/0
[Ci fib]
+30.9 +9.6 27 +30 +44 жарко 1013.6 1007.1
З 1
{5}
20 км 3/3 1200 м
[Cu hum]
+28.9 +10.4 32 +29 +33 жарко 1013.1 1006.6
З 2 20 км 6/0
[Cs]
+27.3 +10.8 36 +28 +30 жарко 1012.9 1006.4
З 1 20 км 6/0
[Cs]
+25.5 +11.2 41 +27 +27 жарко 1012.8 1006.3
З 1
{5}
20 км 4/0
[Ci fib]
+23.9 +11.5 46 +25 +25 комфорт 1013.3 1006.8 +31.9
штиль 0 20 км ясно +21.5 +11.5 53 +24 +24 комфорт 1013.8 1007.3
штиль 0 20 км 4/0
[Ci fib]
+22.6 +11.3 49 +25 +25 комфорт 1013.4 1006.9
штиль 0
{4}
20 км ясно +20.5 +10.0 51 +22 +22 комфорт 1013.9 1007.4
штиль 0 20 км ясно +18.9 +10.5 58 +20 +20 1013.6 1007.1
штиль 0 20 км ясно +17.6 +11.9 69 +18 +18 1013.6 1007.1
В 1
{4}
20 км ясно +18.2 +10.6 61 +19 +19 1012.4 1005.9
В 1 20 км 6/0
[Cs]
+18.9 +9.1 53 +21 +21 комфорт 1012.3 1005.8
В 1 20 км ясно +18.0 +9.6 58 +20 +20 1012.4 1005.9
СВ 1
{3}
20 км 6/0
[Ci fib]
+18.6 +8.8 53 +20 +20 1011.7 1005.2
В 2 20 км 6/0
[Ci fib]
+18.7 +8.3 51 +20 +21 1011.7 1005.2
В 2 20 км 9/0
[Cs]
+20.4 +8.3 46 +22 +25 комфорт 1011.7 1005.2
СВ 2
{7}
20 км 8/0
[Cs]
+21.4 +8.9 45 +23 +29 комфорт 1011.8 1005.3 +17.5
СВ 1 20 км 6/0
[Cs]
+26.9 +11.3 38 +28 +45 жарко 1011.0 1004.5
В 1 20 км 6/4 1000 м
[Cu med, cong Ac trans]
+24.3 +11.2 44 +26 +32 жарко 1011.4 1004.9
В 1
{5}
20 км 4/0
[Ac trans]
+30.8 +5.9 21 +29 +46 жарко 1010.7 1004.3
В 2 20 км 6/0
[Ac und]
+32.7 +9.4 24 +32 +45 жарко 1010.3 1003.9
В 1 20 км 5/3 1000 м
[Cu hum Ac trans]
+33.3 +6.5 19 +31 +46 жарко 1009.9 1003.5
В 1
{5}
20 км 5/0
[Cs]
+34.0 +3.6 15 +31 +49 жарко 1009.2 1002.8
В 2 20 км 5/0
[Cs]
+33.2 +3.9 16 +31 +39 жарко 1008.2 1001.8
ЮВ 1 20 км 6/0
[Cs]
+33.5 +5.9 18 +31 +45 жарко 1008.6 1002.2
ЮВ 2
{6}
20 км 4/0
[Ci fib]
+32.0 +4.7 18 +30 +34 жарко 1007.8 1001.4
В 1 20 км 3/0
[Ci fib]
+30.3 +4.0 19 +28 +30 жарко 1007.7 1001.3
В 1 20 км 3/0
[Ci fib]
+28.9 +5.0 22 +27 +28 жарко 1007.7 1001.3
штиль 0
{6}
20 км ясно +26.3 +6.2 28 +26 +26 жарко 1008.2 1001.7 +34.7
штиль 0 20 км ясно +23.7 +6.8 34 +24 +24 комфорт 1009.4 1003.0
В 1 20 км ясно +25.3 +7.3 32 +25 +25 комфорт 1008.9 1002.5
штиль 0
{2}
20 км ясно +21.6 +7.7 41 +23 +23 комфорт 1009.4 1003.0
штиль 0 20 км ясно +20.6 +6.4 40 +21 +21 комфорт 1009.1 1002.7
штиль 0 20 км ясно +20.2 +6.8 42 +21 +21 комфорт 1008.9 1002.5
штиль 0
{2}
20 км ясно +19.3 +7.6 47 +20 +20 1008.6 1002.2
штиль 0 20 км ясно +18.7 +8.6 52 +19 +19 1008.5 1002.1
штиль 0 20 км ясно +17.5 +7.8 53 +18 +18 1008.4 1002.0
штиль 0
{2}
20 км ясно +19.1 +10.1 56 +20 +20 1008.7 1002.3
штиль 0 20 км ясно +17.6 +9.5 59 +18 +19 1009.2 1002.7
штиль 0 20 км ясно +19.2 +10.5 57 +20 +25 1009.5 1003.0
Ю 1
{2}
20 км ясно +22.6 +12.3 52 +25 +35 комфорт 1009.4 1002.9 +17.3
штиль 0 20 км ясно +24.8 +11.7 44 +26 +42 жарко 1009.1 1002.7
Местоположение метеостанции Айдын (Турция): широта 37.85 долгота 27.85 высота над уровнем моря 56 м.
В архиве по умолчанию представлена погода в Айдыне за последнюю неделю. Архивные данные за месяц целиком и за предыдущие месяцы, начиная с января 2011 года, Вы можете получить, выбрав интересующий диапазон дат из раскрывающегося списка и нажав кнопку "Найти!".
*Определитесь, кто Вы:
Внимание! Время в таблицах - всемирное. Для получения местного времени необходимо прибавить поправку, которая равна 2 ч.
Смотрите также архив погоды в соседних городах и на ближайших метеорологических станциях:
Партнеры нашего сайта:      
Пояснения к столбцам:
  • Ветер - указаны скорость ветра в м/с - средняя за 10 мин, порывы в срок и между сроками (в фигурных скобках) и направление, откуда дует ветер: С - северный,
  • СВ - северо-восточный, В - восточный, ЮВ - юго-восточный, Ю - южный, ЮЗ - юго-западный, З - западный, СЗ - северо-западный.
  • Видимость - горизонтальная дальность видимости в метрах или километрах. При видимости от 1 до 10 км при отсутствии осадков обычно наблюдается дымка, при ухудшении видимости до 1 км и менее - туман. В сухую погоду видимость может ухудшаться дымом, пылью или мглою.
  • Явления - указаны атмосферные явления, наблюдавшиеся в срок или в последний час перед сроком; фигурными скобками обозначены явления, наблюдавшиеся между сроками (за 1-3 часа до срока); квадратными скобками обозначены град или гололедные отложения с указанием их диаметра в мм.
  • Облачность - указаны через наклонную черту общая и нижняя облачность в баллах и высота нижней границы облаков в метрах; квадратными скобками обозначены формы облаков: Ci - перистые, Cs - перисто-слоистые, Cc - перисто-кучевые, Ac - высококучевые, As - высокослоистые, Sc - слоисто-кучевые, Ns - слоисто-дождевые, Cu - кучевые, Cb - кучево-дождевые. Подробнее классификацию облаков см. в Атласе облаков (PDF).
  • T - Температура воздуха - температура, измеренная на высоте 2 м над землей.
  • Td - Температура точки росы - температура, при понижении до которой содержащийся в воздухе водяной пар достигнет насыщения.
  • f - Относительная влажность воздуха - влажноcть воздуха, измеренная на высоте 2 м над землей.
  • Te - Эффективная температура - температура, которую ощущает одетый по сезону человек в тени. Характеристика душности погоды. При расчете учитывается влияние влажности воздуха и скорости ветра на теплоощущения человека.
  • Tes - Эффективная температура на солнце - температура, которую ощущает человек, с поправкой на солнечный нагрев. Характеристика знойности погоды. Зависит от высоты солнца над горизонтом, облачности и скорости ветра. Ночью, в пасмурную погоду, а также при ветре 12 м/с и более поправка равна нулю.
  • P - Атмосферное давление - приведенное к уровню моря атмосферное давление.
  • Po - Атмосферное давление - измеренное на уровне метеостанции атмосферное давление.
  • Tmin - Минимальная температура - минимум температуры воздуха на высоте 2 м над землей.
  • Tmax - Максимальная температура - максимум температуры воздуха на высоте 2 м над землей.
  • R - Количество осадков - Количество выпавших осадков за период времени, мм. При наведении курсора мыши на число - период времени, за который выпало указанное количество осадков.
  • R24 - Количество осадков - Количество выпавших осадков за 24 часа, мм.
  • S - Снежный покров - Высота снежного покрова, см. При наведении курсора мыши на число - состояние снежного покрова и степень покрытия местности в баллах.